Location: Bemmer
(51.5498°N, 5.6249°E)
Time: 14:00:31
(UTC+00:00)

USA 307 - Pass Details

Date: 03 March 2021
Orbit: 567 x 577 km, 54.0° (Epoch: 10 April)

Event Time Altitude Azimuth Distance (km) Brightness Sun altitude
Rises 18:15:30 0° 264° (W) 2,787 8.7 -9.2°
Reaches altitude 10° 18:17:47 10° 267° (W) 1,887 7.2 -9.5°
Maximum altitude 18:22:04 67° 351° (N) 628 3.1 -10.2°
Enters shadow 18:25:45 14° 73° (ENE) 1,657 4.7 -10.8°
